TimeEDT,TemperatureF,Dew PointF,Humidity,Sea Level PressureIn,VisibilityMPH,Wind Direction,Wind SpeedMPH,Gust SpeedMPH,PrecipitationIn,Events,Conditions,WindDirDegrees,DateUTC
12:05 AM,55.4,53.6,94,30.10,10.0,NNE,9.2,-,N/A,,Overcast,20,2012-10-09 04:05:00
12:56 AM,55.9,53.1,90,30.10,7.0,North,10.4,-,N/A,,Overcast,360,2012-10-09 04:56:00
1:56 AM,55.9,53.1,90,30.10,5.0,North,9.2,-,N/A,,Overcast,10,2012-10-09 05:56:00
2:56 AM,55.0,53.1,93,30.09,5.0,North,10.4,-,N/A,,Overcast,360,2012-10-09 06:56:00
3:56 AM,55.0,52.0,89,30.08,6.0,North,9.2,-,N/A,,Overcast,360,2012-10-09 07:56:00
4:30 AM,53.6,53.6,100,30.08,3.0,North,11.5,-,N/A,,Overcast,360,2012-10-09 08:30:00
4:56 AM,54.0,53.1,97,30.09,4.0,North,9.2,-,N/A,,Overcast,360,2012-10-09 08:56:00
5:56 AM,54.0,52.0,93,30.10,5.0,North,9.2,-,N/A,,Overcast,350,2012-10-09 09:56:00
6:28 AM,53.6,51.8,94,30.10,10.0,North,9.2,-,N/A,,Overcast,10,2012-10-09 10:28:00
6:56 AM,54.0,52.0,93,30.11,8.0,North,8.1,-,N/A,,Overcast,350,2012-10-09 10:56:00
7:56 AM,54.0,52.0,93,30.12,6.0,North,6.9,-,N/A,,Overcast,360,2012-10-09 11:56:00
8:20 AM,53.6,51.8,94,30.13,10.0,North,10.4,-,N/A,,Overcast,360,2012-10-09 12:20:00
8:56 AM,54.0,51.1,90,30.14,10.0,North,11.5,-,N/A,,Overcast,10,2012-10-09 12:56:00
9:56 AM,55.0,51.1,86,30.15,10.0,North,12.7,-,N/A,,Overcast,360,2012-10-09 13:56:00
10:56 AM,55.9,51.1,84,30.16,10.0,North,9.2,-,N/A,,Overcast,10,2012-10-09 14:56:00
11:56 AM,57.0,51.1,81,30.15,10.0,North,10.4,-,N/A,,Overcast,350,2012-10-09 15:56:00
12:11 PM,59.0,51.8,77,30.15,10.0,North,10.4,-,N/A,,Overcast,10,2012-10-09 16:11:00
12:56 PM,61.0,51.1,70,30.14,10.0,NNW,9.2,-,N/A,,Overcast,340,2012-10-09 16:56:00
1:56 PM,62.1,52.0,70,30.12,10.0,North,6.9,-,N/A,,Overcast,360,2012-10-09 17:56:00
2:38 PM,64.4,53.6,68,30.10,10.0,North,4.6,-,N/A,,Scattered Clouds,350,2012-10-09 18:38:00
2:56 PM,66.0,53.1,63,30.09,10.0,North,8.1,-,N/A,,Scattered Clouds,360,2012-10-09 18:56:00
3:56 PM,68.0,54.0,61,30.09,10.0,NNE,5.8,-,N/A,,Clear,20,2012-10-09 19:56:00
4:56 PM,68.0,53.1,59,30.08,10.0,NNE,5.8,-,N/A,,Clear,30,2012-10-09 20:56:00
5:56 PM,68.0,54.0,61,30.08,10.0,NNE,3.5,-,N/A,,Clear,20,2012-10-09 21:56:00
6:56 PM,64.0,54.0,70,30.09,10.0,North,3.5,-,N/A,,Clear,10,2012-10-09 22:56:00
7:56 PM,60.1,54.0,80,30.09,10.0,NE,3.5,-,N/A,,Clear,40,2012-10-09 23:56:00
8:56 PM,59.0,55.0,87,30.10,10.0,Calm,Calm,-,N/A,,Clear,0,2012-10-10 00:56:00
9:56 PM,57.9,53.1,84,30.12,10.0,ENE,5.8,-,N/A,,Clear,60,2012-10-10 01:56:00
10:56 PM,57.0,53.1,87,30.12,10.0,ENE,4.6,-,N/A,,Clear,70,2012-10-10 02:56:00
11:56 PM,54.0,51.1,90,30.13,10.0,NE,8.1,-,N/A,,Clear,40,2012-10-10 03:56:00